Home > Weather > Neuwied > Past weeks

Flag for Germany Weather for the Past 2 Weeks in Neuwied, Rhineland-Palatinate, Germany

Now
34 °F

Chilly.


Feels Like: 27 °F
Forecast: 34 / 43 °F
Wind: 8 mph from West

Location: Buechel

Current Time: Feb 11, 2016 at 3:46:51 AM

Latest Report: Feb 11, 2016 at 2:20 AM


Visibility: N/A

Pressure: 29.59 "Hg

Humidity: 93%

Dew point: 32 °F

Location of NeuwiedLocation

Historic Weather in Neuwied — Graph

°F

Neuwied Temperature Yesterday

Maximum temperature yesterday: 36 °F (at 1:59 PM)
Minimum temperature yesterday: 32 °F (at 7:20 AM)
Average temperature yesterday: 34 °F

High & Low Weather Summary for the Past Weeks

 TemperatureHumidityPressure
High50 °F (Feb 1, 1:20 AM)100% (Jan 28, 5:20 AM)30.33 "Hg (Jan 28, 5:20 AM)
Low32 °F (Jan 29, 12:20 AM)62% (Jan 27, 7:20 PM)28.94 "Hg (Feb 9, 5:20 PM)
Average40 °F90%29.89 "Hg
* Reported Jan 27 1:20 AM — Feb 11 1:20 AM, Neuwied, Weather by CustomWeather, © 2016

Note: Actual official high and low records may vary slightly from our data, if they occured in-between our weather recording intervals... More about our weather records

Advertising

Neuwied Weather History for the Previous 24 Hours

 ConditionsComfort  
Time TempWeatherWind HumidityBarometerVisibility
1:20 AM
Thu, Feb 11
34 °FChilly.7 mph100%29.59 "HgN/A
12:20 AM36 °FChilly.7 mph93%29.56 "HgN/A
11:20 PM
Wed, Feb 10
34 °FChilly.9 mph100%29.56 "HgN/A
10:20 PM34 °FChilly.10 mph100%29.53 "HgN/A
9:20 PM34 °FPartly cloudy.13 mph100%29.50 "Hg4 mi
8:20 PM36 °FPartly cloudy.10 mph93%29.47 "HgN/A
7:20 PM36 °FLight rain. Passing clouds.12 mph93%29.47 "Hg4 mi
6:20 PM36 °FLight rain. Passing clouds.12 mph93%29.45 "Hg4 mi
5:20 PM36 °FLight rain. Broken clouds.13 mph93%29.42 "HgN/A
4:20 PM36 °FBroken clouds.12 mph93%29.39 "HgN/A
3:20 PM36 °FPartly sunny.12 mph93%29.39 "HgN/A
2:20 PM36 °FPartly sunny.12 mph100%29.36 "Hg5 mi
1:59 PM36 °FLight rain. Partly sunny.13 mph93%29.36 "Hg5 mi
1:20 PM34 °FLight rain. Fog.14 mph100%29.36 "Hg3 mi
12:47 PM34 °FSnow. Fog.13 mph100%29.36 "Hg1 mi
12:20 PM34 °FLight snow. Fog.13 mph93%29.36 "Hg2 mi
11:20 AM32 °FHeavy snow. Mostly cloudy.13 mph100%29.36 "Hg1 mi
10:55 AM32 °FSnow. Ice fog.16 mph100%29.33 "Hg1 mi
10:20 AM32 °FLight snow. Ice fog.16 mph100%29.33 "Hg2 mi
9:20 AM32 °FSnow. Ice fog.16 mph100%29.30 "Hg1 mi
8:20 AM32 °FSnow. Mostly cloudy.15 mph93%29.30 "Hg1 mi
7:20 AM32 °FSnow. Passing clouds.14 mph93%29.30 "Hg1 mi
6:20 AM34 °FPassing clouds.15 mph87%29.30 "HgN/A
5:20 AM34 °FPassing clouds.14 mph87%29.27 "HgN/A
4:20 AM34 °FChilly.12 mph87%29.30 "HgN/A
3:20 AM34 °FChilly.12 mph93%29.30 "HgN/A
Weather by CustomWeather, © 2016

See weather overviewHow to use our weather pages